Weather History for Moab, UT

Change the Weather History Date:

Monday, March 24, 2014

  Actual Average Record
Temperature  
Mean Temperature 47 °F 47 °F  
Max Temperature 66 °F 61 °F 82 °F (1993)
Min Temperature 27 °F 32 °F 15 °F (2013)
Degree Days  
Heating Degree Days 18 18  
Month to date heating degree days 449 516  
Since 1 July heating degree days 5197 4925  
Cooling Degree Days 0 0  
Month to date cooling degree days 0 0  
Year to date cooling degree days 0 0  
Moisture  
Dew Point 4 °F    
Average Humidity 23    
Maximum Humidity 37    
Minimum Humidity 8    
Precipitation  
Precipitation 0.00 in 0.02 in 0.59 in (1941)
Month to date precipitation 0.31 0.58  
Year to date precipitation 0.64 1.74  
Sea Level Pressure  
Sea Level Pressure 30.12 in    
Wind  
Wind Speed 7 mph (West)    
Max Wind Speed 20 mph    
Max Gust Speed 34 mph    
Visibility 10 miles    
Events      
T = Trace of Precipitation, MM = Missing Value Source: NWS Daily Summary

Daily Weather History Graph

Daily Weather History Graph

Search for Another Location

Airport:

Trip Planner

Search our weather history database for the weather conditions in past years. The results will help you decide how hot, cold, wet, or windy it might be!

Date:

Astronomy

Mar. 24, 2014 Rise Set
Actual Time 7:16 AM MDT 7:34 PM MDT
Civil Twilight 6:49 AM MDT 8:01 PM MDT
Nautical Twilight 6:18 AM MDT 8:32 PM MDT
Astronomical Twilight 5:46 AM MDT 9:04 PM MDT
Moon 2:45 AM MDT (3/24) 1:07 PM MDT (3/24)
Length of Visible Light 13h 12m
Length of Day
12h 18m
Last Quarter, 42% of the Moon is Illuminated
Mar 24
Last Quarter
Mar 30
New
Apr 7
First Quarter
Apr 15
Full
Apr 22
Last Quarter

Hourly Weather History & Observations

Time (MDT) Temp. Windchill Dew Point Humidity Pressure Visibility Wind Dir Wind Speed Gust Speed Precip Events Conditions
12:53 AM 39.0 °F - 1.9 °F 21% 30.11 in 10.0 mi Calm Calm - N/A   Clear
1:53 AM 39.0 °F 35.7 °F 1.9 °F 21% 30.11 in 10.0 mi West 4.6 mph - N/A   Clear
2:53 AM 33.1 °F - 5.0 °F 31% 30.12 in 10.0 mi Calm Calm - N/A   Clear
3:53 AM 35.1 °F 32.2 °F 3.9 °F 27% 30.11 in 10.0 mi WSW 3.5 mph - N/A   Clear
4:53 AM 32.0 °F - 3.9 °F 31% 30.12 in 10.0 mi Calm Calm - N/A   Clear
5:53 AM 34.0 °F 31.0 °F 3.0 °F 27% 30.12 in 10.0 mi SW 3.5 mph - N/A   Clear
6:53 AM 27.0 °F - 3.9 °F 37% 30.16 in 10.0 mi Calm Calm - N/A   Clear
7:53 AM 32.0 °F - 5.0 °F 32% 30.19 in 10.0 mi Calm Calm - N/A   Clear
8:53 AM 41.0 °F - 7.0 °F 25% 30.19 in 10.0 mi Calm Calm - N/A   Clear
9:53 AM 50.0 °F - 5.0 °F 16% 30.18 in 10.0 mi NW 5.8 mph - N/A   Clear
10:53 AM 53.1 °F - 9.0 °F 17% 30.17 in 10.0 mi NW 11.5 mph - N/A   Clear
11:53 AM 59.0 °F - 5.0 °F 12% 30.15 in 10.0 mi NW 15.0 mph - N/A   Clear
12:53 PM 61.0 °F - 5.0 °F 11% 30.15 in 10.0 mi West 12.7 mph 21.9 mph N/A   Clear
1:53 PM 63.0 °F - 3.9 °F 10% 30.13 in 10.0 mi West 12.7 mph 20.7 mph N/A   Clear
2:53 PM 63.0 °F - 3.9 °F 10% 30.12 in 10.0 mi West 15.0 mph 19.6 mph N/A   Clear
3:53 PM 64.9 °F - 5.0 °F 9% 30.09 in 10.0 mi WNW 13.8 mph - N/A   Clear
4:53 PM 64.9 °F - 3.9 °F 9% 30.07 in 10.0 mi NW 12.7 mph - N/A   Clear
5:53 PM 64.9 °F - 3.0 °F 9% 30.06 in 10.0 mi West 12.7 mph 25.3 mph N/A   Clear
6:53 PM 63.0 °F - 1.9 °F 9% 30.08 in 10.0 mi WSW 8.1 mph - N/A   Clear
7:53 PM 54.0 °F - 3.9 °F 13% 30.09 in 10.0 mi SW 4.6 mph - N/A   Clear
8:53 PM 53.1 °F - 5.0 °F 14% 30.08 in 10.0 mi West 5.8 mph - N/A   Clear
9:53 PM 50.0 °F - 3.9 °F 15% 30.09 in 10.0 mi West 6.9 mph - N/A   Clear
10:53 PM 46.0 °F 43.9 °F 6.1 °F 20% 30.09 in 10.0 mi NNW 4.6 mph - N/A   Clear
11:53 PM 44.1 °F - 6.1 °F 21% 30.08 in 10.0 mi Calm Calm - N/A   Clear